Weather History for Perry, FL

Change the Weather History Date:

Saturday, March 31, 2012

  Actual Average (KCTY) Record (KCTY)
Temperature  
Mean Temperature 72 °F 65 °F  
Max Temperature 82 °F 78 °F 84 °F (1998)
Min Temperature 62 °F 51 °F 39 °F (2003)
Degree Days  
Heating Degree Days 0 3  
Month to date heating degree days 136  
Since 1 July heating degree days 1255  
Cooling Degree Days 8 2  
Month to date cooling degree days 47  
Year to date cooling degree days 74  
Growing Degree Days 22 (Base 50)    
Moisture  
Dew Point 64 °F    
Average Humidity 82    
Maximum Humidity 93    
Minimum Humidity 54    
Precipitation  
Precipitation 0.31 in 0.12 in 0.67 in (2011)
Month to date precipitation 4.21  
Year to date precipitation 11.52  
Sea Level Pressure  
Sea Level Pressure 29.90 in    
Wind  
Wind Speed 5 mph (SW)    
Max Wind Speed 13 mph    
Max Gust Speed 24 mph    
T = Trace of Precipitation, MM = Missing Value Source: NWS Daily Summary

Daily Weather History Graph

Daily Weather History Graph

Search for Another Location

Airport:

Trip Planner

Search our weather history database for the weather conditions in past years. The results will help you decide how hot, cold, wet, or windy it might be!

Date:

Astronomy

Mar. 31, 2012 Rise Set
Actual Time 7:24 AM EDT 7:52 PM EDT
Civil Twilight 7:00 AM EDT 8:16 PM EDT
Nautical Twilight 6:31 AM EDT 8:45 PM EDT
Astronomical Twilight 6:03 AM EDT 9:13 PM EDT
Moon 1:45 PM EDT (3/31) 2:52 AM EDT (3/31)
Length of Visible Light 13h 16m
Length of Day
12h 28m
First Quarter, 59% of the Moon is Illuminated
Mar 31
First Quarter
Apr 6
Full
Apr 13
Last Quarter
Apr 21
New
Apr 29
First Quarter

Hourly Weather History & Observations

Time (EDT) Temp. Heat Index Dew Point Humidity Pressure Visibility Wind Dir Wind Speed Gust Speed Precip Events Conditions
12:53 AM 68.0 °F - 63.0 °F 84% 29.97 in - South 5.8 mph - N/A   Unknown
1:53 AM 66.0 °F - 63.0 °F 90% 29.95 in - SSE 3.5 mph - N/A   Unknown
2:53 AM 64.0 °F - 61.0 °F 90% 29.94 in - Calm Calm - N/A   Unknown
3:53 AM 64.0 °F - 61.0 °F 90% 29.93 in - Calm Calm - N/A   Unknown
4:53 AM 66.9 °F - 64.9 °F 93% 29.91 in - SSE 3.5 mph - N/A   Unknown
5:53 AM 68.0 °F - 64.9 °F 90% 29.91 in - SSE 3.5 mph - N/A   Unknown
6:53 AM 71.1 °F - 68.0 °F 90% 29.92 in - SSW 4.6 mph - N/A   Unknown
7:53 AM 73.0 °F - 69.1 °F 87% 29.92 in - SW 10.4 mph - N/A   Unknown
8:53 AM 73.9 °F - 69.1 °F 85% 29.93 in - SW 8.1 mph - N/A   Unknown
9:53 AM 68.0 °F - 63.0 °F 84% 29.95 in - West 11.5 mph 24.2 mph 0.10 in   Unknown
10:53 AM 68.0 °F - 64.0 °F 87% 29.93 in - SW 5.8 mph - N/A   Unknown
11:53 AM 75.0 °F - 66.0 °F 73% 29.93 in - WSW 6.9 mph - N/A   Unknown
12:53 PM 80.1 °F 81.9 °F 64.9 °F 60% 29.89 in - Variable 6.9 mph - N/A   Unknown
1:53 PM 81.0 °F 82.2 °F 63.0 °F 54% 29.88 in - West 9.2 mph - N/A   Unknown
2:53 PM 82.0 °F 83.4 °F 64.0 °F 54% 29.86 in - SW 12.7 mph 18.4 mph N/A   Unknown
3:53 PM 73.9 °F - 63.0 °F 68% 29.84 in - North 4.6 mph - N/A   Unknown
4:53 PM 66.0 °F - 61.0 °F 84% 29.84 in - Calm Calm - 0.19 in   Unknown
5:53 PM 71.1 °F - 64.0 °F 78% 29.83 in - WNW 8.1 mph - 0.02 in   Unknown
6:53 PM 71.1 °F - 64.0 °F 78% 29.85 in - WSW 6.9 mph - N/A   Unknown
7:53 PM 68.0 °F - 63.0 °F 84% 29.86 in - WSW 4.6 mph - N/A   Unknown
8:53 PM 66.0 °F - 63.0 °F 90% 29.88 in - Calm Calm - N/A   Unknown
9:53 PM 64.9 °F - 62.1 °F 90% 29.90 in - Calm Calm - N/A   Unknown
10:53 PM 63.0 °F - 61.0 °F 93% 29.92 in - WNW 4.6 mph - N/A   Unknown
11:53 PM 62.1 °F - 59.0 °F 90% 29.92 in - Calm Calm - N/A   Unknown